Location: Newark
(13.8117°N, 3.6025°W)
Time: 01:28:33
(UTC+00:00)

Courier 1B - Pass Details

Date: 19 August 2019
Orbit: 962 x 1209 km, 28.3° (Epoch: 23 October)

Event Time Altitude Azimuth Distance (km) Brightness Sun altitude
Rises 21:49:58 0° 302° (WNW) 3,632 11.3 -44.8°
Reaches altitude 10° 21:53:11 10° 316° (NW) 2,684 10.4 -45.4°
Enters shadow 21:54:53 16° 329° (NNW) 2,274 9.8 -45.8°
